TimeEST,TemperatureF,Dew PointF,Humidity,Sea Level PressureIn,VisibilityMPH,Wind Direction,Wind SpeedMPH,Gust SpeedMPH,PrecipitationIn,Events,Conditions,WindDirDegrees,DateUTC
12:56 AM,69.1,59.0,70,29.75,10.0,South,24.2,31.1,N/A,,Overcast,170,2013-01-13 05:56:00
1:56 AM,69.1,59.0,70,29.75,10.0,South,19.6,36.8,0.00,,Mostly Cloudy,190,2013-01-13 06:56:00
2:56 AM,64.9,59.0,81,29.83,2.0,West,32.2,41.4,0.00,Rain,Light Rain,280,2013-01-13 07:56:00
2:59 AM,62.6,57.2,82,29.84,2.0,West,25.3,41.4,0.00,Rain,Heavy Rain,280,2013-01-13 07:59:00
3:02 AM,60.8,57.2,88,29.84,3.0,West,20.7,41.4,0.10,Rain,Heavy Rain,270,2013-01-13 08:02:00
3:26 AM,60.8,59.0,94,29.85,2.5,West,11.5,-,0.30,Rain,Heavy Rain,260,2013-01-13 08:26:00
3:56 AM,60.1,59.0,96,29.85,3.0,SSW,8.1,-,0.59,Rain,Heavy Rain,210,2013-01-13 08:56:00
4:18 AM,60.8,59.0,94,29.85,2.0,South,6.9,-,0.09,Rain,Heavy Rain,180,2013-01-13 09:18:00
4:50 AM,60.8,59.0,94,29.84,3.0,SSE,5.8,-,0.40,Rain,Heavy Rain,160,2013-01-13 09:50:00
4:56 AM,60.8,59.0,94,29.87,4.0,SW,6.9,-,N/A,Rain,Rain,230,2013-01-13 09:56:00
5:00 AM,60.8,59.0,94,29.85,1.8,Calm,Calm,-,0.01,Rain,Heavy Rain,0,2013-01-13 10:00:00
5:06 AM,60.8,59.0,94,29.87,1.2,SW,4.6,-,0.11,Rain,Heavy Rain,220,2013-01-13 10:06:00
5:20 AM,60.8,59.0,94,29.86,2.0,South,6.9,-,0.29,Rain,Heavy Rain,190,2013-01-13 10:20:00
5:28 AM,60.8,59.0,94,29.85,3.0,South,4.6,-,0.34,Rain,Rain,180,2013-01-13 10:28:00
5:56 AM,60.1,59.0,96,29.85,10.0,SSE,4.6,-,0.36,Rain,Light Rain,160,2013-01-13 10:56:00
6:56 AM,60.1,59.0,96,29.90,7.0,South,11.5,-,0.09,Rain,Light Rain,170,2013-01-13 11:56:00
7:56 AM,59.0,57.9,96,29.91,9.0,SSE,11.5,-,0.06,Rain,Light Rain,150,2013-01-13 12:56:00
8:56 AM,59.0,57.9,96,29.88,9.0,SSE,16.1,23.0,0.06,Rain,Light Rain,150,2013-01-13 13:56:00
9:41 AM,59.0,57.2,94,29.90,10.0,SSE,6.9,-,0.01,Rain,Light Rain,160,2013-01-13 14:41:00
9:56 AM,60.8,57.2,88,29.91,8.0,South,5.8,-,N/A,Rain,Light Rain,170,2013-01-13 14:56:00
10:56 AM,59.0,57.9,96,29.90,5.0,SSE,11.5,-,0.09,Rain,Rain,150,2013-01-13 15:56:00
11:56 AM,59.0,57.0,93,29.86,9.0,SSE,15.0,-,0.06,Rain,Light Rain,160,2013-01-13 16:56:00
12:47 PM,60.8,57.2,88,29.86,3.0,South,4.6,-,0.10,Rain,Heavy Rain,170,2013-01-13 17:47:00
12:56 PM,60.1,57.9,93,29.86,3.0,SSW,8.1,-,0.13,Rain,Rain,200,2013-01-13 17:56:00
1:08 PM,60.8,57.2,88,29.86,2.5,SSW,9.2,-,0.05,Rain,Heavy Rain,200,2013-01-13 18:08:00
1:35 PM,60.8,59.0,94,29.87,3.0,South,6.9,-,0.18,Rain,Heavy Rain,190,2013-01-13 18:35:00
1:42 PM,60.8,59.0,94,29.86,2.5,SSE,6.9,-,0.22,Rain,Heavy Rain,160,2013-01-13 18:42:00
1:56 PM,60.1,59.0,96,29.84,2.5,South,3.5,-,0.29,Rain,Heavy Rain,190,2013-01-13 18:56:00
2:12 PM,60.8,59.0,94,29.83,4.0,ESE,3.5,-,0.06,Rain,Rain,110,2013-01-13 19:12:00
2:24 PM,60.8,59.0,94,29.83,6.0,SE,4.6,-,0.08,Rain,Light Rain,140,2013-01-13 19:24:00
2:46 PM,55.4,55.4,100,29.85,8.0,WNW,6.9,-,0.09,Rain,Light Rain,290,2013-01-13 19:46:00
2:56 PM,55.0,54.0,96,29.85,7.0,WNW,5.8,-,0.09,Rain,Light Rain,290,2013-01-13 19:56:00
3:13 PM,53.6,53.6,100,29.85,3.0,NNW,8.1,-,0.01,Rain,Rain,330,2013-01-13 20:13:00
3:23 PM,51.8,50.0,94,29.89,3.0,WNW,18.4,27.6,0.02,Rain,Light Rain,300,2013-01-13 20:23:00
3:56 PM,46.9,46.0,97,29.87,3.0,NNW,6.9,-,0.06,Rain,Rain,330,2013-01-13 20:56:00
4:56 PM,43.0,41.0,93,29.94,3.0,NW,15.0,21.9,0.10,Rain,Rain,320,2013-01-13 21:56:00
5:21 PM,42.8,39.2,87,29.97,2.0,WNW,16.1,21.9,0.09,Rain,Heavy Rain,300,2013-01-13 22:21:00
5:33 PM,41.0,39.2,93,29.96,4.0,WNW,16.1,23.0,0.14,Rain,Rain,300,2013-01-13 22:33:00
5:56 PM,39.9,37.0,89,29.99,10.0,WNW,10.4,-,0.17,Rain,Light Rain,300,2013-01-13 22:56:00
6:41 PM,39.2,37.4,93,30.02,4.0,NW,13.8,20.7,0.10,Rain,Rain,310,2013-01-13 23:41:00
6:56 PM,37.9,35.1,89,30.04,7.0,WNW,18.4,-,0.12,Rain,Rain,300,2013-01-13 23:56:00
7:02 PM,37.4,35.6,93,30.05,7.0,WNW,21.9,26.5,0.01,Rain,Rain,300,2013-01-14 00:02:00
7:22 PM,37.4,33.8,87,30.07,10.0,NW,18.4,31.1,0.01,Rain,Light Rain,310,2013-01-14 00:22:00
7:56 PM,37.0,33.1,86,30.08,10.0,NW,10.4,-,0.01,,Overcast,320,2013-01-14 00:56:00
8:56 PM,37.0,33.1,86,30.11,10.0,WNW,13.8,-,N/A,,Overcast,300,2013-01-14 01:56:00
9:19 PM,37.4,33.8,87,30.13,10.0,WNW,9.2,-,N/A,,Overcast,290,2013-01-14 02:19:00
9:52 PM,35.6,33.8,93,30.14,10.0,WNW,11.5,-,N/A,,Overcast,300,2013-01-14 02:52:00
9:56 PM,36.0,33.1,89,30.15,10.0,WNW,8.1,-,N/A,,Overcast,290,2013-01-14 02:56:00
10:56 PM,35.1,32.0,89,30.19,10.0,NNW,9.2,-,N/A,,Overcast,330,2013-01-14 03:56:00
11:56 PM,33.1,28.9,85,30.22,10.0,North,12.7,-,N/A,,Overcast,350,2013-01-14 04:56:00